Prudhoe Bay, AK

10:46 AM AKST on February 14, 2016 (GMT -0900)
Deadhorse

Weather History for PASC - January, 2014

Change the Weather History Date:

Friday, January 17, 2014

  Actual Average Record
Temperature  
Mean Temperature -32 °F -  
Max Temperature -17 °F -6 °F 39 °F (2009)
Min Temperature -47 °F -18 °F -49 °F (1991)
Degree Days  
Heating Degree Days 98    
Moisture  
Dew Point -29 °F    
Average Humidity 69    
Maximum Humidity 76    
Minimum Humidity 63    
Precipitation  
Precipitation 0.00 in - - ()
Sea Level Pressure  
Sea Level Pressure 30.15 in    
Wind  
Wind Speed 13 mph (NNE)    
Max Wind Speed 39 mph    
Max Gust Speed 47 mph    
Visibility 3 miles    
Events Fog , Snow    
Averages and records for this station are not official NWS values.
T = Trace of Precipitation, MM = Missing Value Source: NWS Daily Summary

Daily Weather History Graph

Daily Weather History Graph

Search for Another Location

Airport or City:

Trip Planner

Search our weather history database for the weather conditions in past years. The results will help you decide how hot, cold, wet, or windy it might be!

Date:

Astronomy

Jan. 17, 2014 Rise Set
Actual Time 12:51 PM AKST 1:17 PM AKST
Civil Twilight 10:06 AM AKST 4:02 PM AKST
Nautical Twilight 8:35 AM AKST 5:33 PM AKST
Astronomical Twilight 7:20 AM AKST 6:48 PM AKST
Moon 6:20 PM AKST (1/17) 10:26 AM AKST (1/17)
Length of Visible Light 5h 55m
Length of Day
0h 26m
Full, 98% of the Moon is Illuminated
Jan 17
Full
Jan 23
Last Quarter
Jan 30
New
Feb 6
First Quarter
Feb 14
Full

Hourly Weather History & Observations

Time (AKST) Temp. Windchill Dew Point Humidity Pressure Visibility Wind Dir Wind Speed Gust Speed Precip Events Conditions
12:53 AM -43.1 °F -68.3 °F - N/A% 30.35 in 10.0 mi WSW 9.2 mph - N/A   Clear
1:53 AM -44.0 °F -65.9 °F - N/A% 30.35 in 10.0 mi WSW 6.9 mph - N/A   Clear
2:53 AM -44.0 °F -69.4 °F - N/A% 30.37 in 10.0 mi SW 9.2 mph - N/A   Clear
3:53 AM -44.0 °F -65.9 °F - N/A% 30.37 in 10.0 mi WSW 6.9 mph - N/A   Clear
4:53 AM -44.0 °F -65.9 °F - N/A% 30.37 in 10.0 mi WSW 6.9 mph - N/A   Clear
5:53 AM -45.0 °F -69.0 °F - N/A% 30.37 in 10.0 mi West 8.1 mph - N/A   Clear
6:53 AM -45.9 °F -63.5 °F - N/A% 30.38 in 9.0 mi SW 4.6 mph - N/A   Clear
7:13 AM -47.2 °F -67.6 °F - N/A% 30.35 in 7.0 mi SW 5.8 mph - N/A Fog Patches of Fog
7:53 AM -44.0 °F -63.7 °F - N/A% 30.36 in 7.0 mi West 5.8 mph - N/A Fog Patches of Fog
8:09 AM -43.6 °F -63.3 °F - N/A% 30.34 in 1.8 mi West 5.8 mph - N/A   Mostly Cloudy
8:53 AM -44.0 °F -58.1 °F - N/A% 30.35 in 1.8 mi West 3.5 mph - N/A   Mostly Cloudy
9:53 AM -44.0 °F -61.2 °F - N/A% 30.35 in 1.8 mi WSW 4.6 mph - N/A   Mostly Cloudy
10:53 AM -41.1 °F -54.8 °F - N/A% 30.32 in 1.5 mi NW 3.5 mph - N/A   Mostly Cloudy
11:33 AM -41.8 °F -58.7 °F - N/A% 30.28 in 1.2 mi North 4.6 mph - N/A   Mostly Cloudy
11:53 AM -40.0 °F -62.9 °F - N/A% 30.28 in 1.2 mi North 8.1 mph - N/A   Mostly Cloudy
12:28 PM -36.4 °F -54.8 °F - N/A% 30.26 in 0.8 mi NNE 5.8 mph - N/A   Mist
12:44 PM -34.6 °F -56.3 °F - N/A% 30.26 in 1.0 mi NE 8.1 mph - N/A   Mist
12:53 PM -34.1 °F -57.2 °F - N/A% 30.27 in 1.8 mi NE 9.2 mph - N/A   Overcast
1:01 PM -34.6 °F -54.6 °F - N/A% 30.26 in 2.0 mi ENE 6.9 mph - N/A   Overcast
1:50 PM -32.8 °F -57.0 °F - N/A% 30.22 in 3.0 mi NE 10.4 mph - N/A   Scattered Clouds
1:53 PM -33.0 °F -57.2 °F - N/A% 30.24 in 3.0 mi NE 10.4 mph - N/A   Scattered Clouds
2:53 PM -27.9 °F -56.0 °F -34.1 °F 73% 30.20 in 10.0 mi NE 16.1 mph - N/A   Overcast
3:53 PM -26.0 °F -55.0 °F -33.0 °F 69% 30.17 in 3.0 mi NE 18.4 mph - N/A Snow Blowing Snow
4:53 PM -25.1 °F -55.9 °F -32.1 °F 70% 30.13 in 3.0 mi NE 21.9 mph - N/A Snow Blowing Snow
5:53 PM -24.0 °F -55.7 °F -31.0 °F 70% 30.09 in 0.8 mi NE 24.2 mph - N/A Snow Blowing Snow
6:09 PM -23.8 °F -54.3 °F -31.0 °F 69% 30.07 in 1.0 mi NE 21.9 mph - N/A Snow Blowing Snow
6:17 PM -23.8 °F -54.3 °F -31.0 °F 69% 30.07 in 0.8 mi NE 21.9 mph - N/A Snow Blowing Snow
6:26 PM -23.8 °F -55.5 °F -29.2 °F 76% 30.07 in 1.0 mi NE 24.2 mph - N/A Snow Blowing Snow
6:53 PM -22.0 °F -54.7 °F -29.9 °F 67% 30.03 in 1.0 mi NE 27.6 mph - N/A Snow Blowing Snow
6:58 PM -22.0 °F -54.7 °F -29.2 °F 69% 30.02 in 0.8 mi NE 27.6 mph - N/A Snow Blowing Snow
7:25 PM -20.2 °F -51.8 °F -29.2 °F 63% 30.01 in 0.5 mi NE 26.5 mph - N/A Snow Blowing Snow
7:53 PM -20.9 °F -53.8 °F -27.9 °F 70% 29.97 in 0.5 mi NE 28.8 mph 35.7 mph N/A Snow Blowing Snow
8:02 PM -20.2 °F -53.3 °F -27.4 °F 69% 29.97 in 0.2 mi NE 29.9 mph - N/A Snow Blowing Snow
8:21 PM -20.2 °F -54.2 °F -27.4 °F 69% 29.95 in 0.5 mi NE 32.2 mph 36.8 mph N/A Snow Blowing Snow
8:28 PM -20.2 °F -52.8 °F -27.4 °F 69% 29.96 in 0.5 mi NE 28.8 mph - N/A Fog , Snow Light Freezing Fog
8:53 PM -20.0 °F -53.5 °F -27.9 °F 67% 29.93 in 0.5 mi ENE 31.1 mph - N/A Fog , Snow Light Freezing Fog
9:00 PM -20.2 °F -54.6 °F -27.4 °F 69% 29.91 in 0.2 mi NE 33.4 mph 40.3 mph N/A Fog , Snow Light Freezing Fog
9:16 PM -20.2 °F -55.0 °F -27.4 °F 69% 29.88 in 0.5 mi ENE 34.5 mph 42.6 mph N/A Fog , Snow Light Freezing Fog
9:39 PM -18.4 °F -51.7 °F -27.4 °F 63% 29.86 in 0.2 mi NE 32.2 mph 41.4 mph N/A Fog , Snow Blowing Snow
9:53 PM -18.9 °F -53.7 °F -27.0 °F 66% 29.86 in 0.2 mi ENE 35.7 mph 41.4 mph N/A Fog , Snow Blowing Snow
10:53 PM -18.0 °F -52.1 °F -25.1 °F 70% 29.83 in 0.2 mi ENE 34.5 mph - N/A Fog , Snow Blowing Snow
11:53 PM -17.0 °F -52.1 °F -24.0 °F 70% 29.76 in 0.2 mi ENE 39.1 mph 47.2 mph N/A Fog , Snow Blowing Snow